KQ4KX Weather Reports


time (UTC)temp
F
wind
direction
speed
knots
gust
knots
rain 1hr
in
rain 24hr
in
rain mn
in
humidity
%
barometer
mb
20260905080705 77 190 0.0 0.9 0.00 0.00 0.00 98 1014.2
20260905080505 77 190 0.0 0.9 0.00 0.00 0.00 98 1014.2
20260905075109 77 166 0.0 0.9 0.00 0.00 0.00 98 1014.1
20260905074905 77 166 0.0 0.9 0.00 0.00 0.00 98 1014.1
20260905074405 77 173 0.0 0.9 0.00 0.00 0.00 98 1014.2
20260905073022 76 107 0.0 1.7 0.00 0.00 0.00 97 1014.2
20260905072836 76 107 0.0 1.7 0.00 0.00 0.00 97 1014.2
20260905071101 77 217 0.0 0.9 0.00 0.00 0.00 96 1014.2
20260905070835 77 217 0.0 0.9 0.00 0.00 0.00 96 1014.2
20260905065528 77 235 0.0 0.9 0.00 0.00 0.00 96 1014.4
20260905065306 77 235 0.0 0.9 0.00 0.00 0.00 96 1014.4
20260905064502 77 241 0.0 0.9 0.00 0.00 0.00 96 1014.4
20260905064305 77 241 0.0 0.9 0.00 0.00 0.00 96 1014.4
20260905063735 77 0 0.0 0.0 0.00 0.00 0.00 95 1014.5
20260905063444 77 241 0.0 0.9 0.00 0.00 0.00 95 1014.5
20260905063235 77 241 0.0 0.9 0.00 0.00 0.00 95 1014.5
20260905062706 77 241 0.0 0.9 0.00 0.00 0.00 95 1014.4
20260905062135 77 241 0.0 0.9 0.00 0.00 0.00 95 1014.5
20260905061105 78 241 0.0 0.9 0.00 0.00 0.00 95 1014.5
20260905060705 78 241 0.0 0.9 0.00 0.00 0.00 95 1014.5
20260905060535 78 241 0.0 0.9 0.00 0.00 0.00 95 1014.5
20260905060159 78 0 0.0 0.9 0.00 0.00 0.00 95 1014.6
20260905060005 78 0 0.0 0.9 0.00 0.00 0.00 95 1014.6
20260905055614 78 0 0.0 0.0 0.00 0.00 0.00 95 1014.7
20260905055435 78 0 0.0 0.0 0.00 0.00 0.00 95 1014.7
20260905054905 78 265 0.0 1.7 0.00 0.00 0.00 95 1014.8
20260905053805 78 189 0.0 1.7 0.00 0.00 0.00 95 1014.8
20260905053509 78 175 0.0 1.7 0.00 0.00 0.00 95 1014.9
20260905053305 78 175 0.0 1.7 0.00 0.00 0.00 95 1014.9
20260905052458 79 183 0.0 0.9 0.00 0.00 0.00 95 1015.1
20260905052235 79 183 0.0 0.9 0.00 0.00 0.00 95 1015.1
20260905051901 79 183 0.0 0.9 0.00 0.00 0.00 95 1015.1
20260905051735 79 183 0.0 0.9 0.00 0.00 0.00 95 1015.1
20260905051205 79 180 0.0 0.9 0.00 0.00 0.00 95 1015.2
20260905050351 79 176 0.0 1.7 0.00 0.00 0.00 95 1015.2
20260905050135 79 176 0.0 1.7 0.00 0.00 0.00 95 1015.2
20260905045939 80 180 0.0 0.9 0.00 0.00 0.00 95 1015.3
20260905045635 80 180 0.0 0.9 0.00 0.00 0.00 95 1015.3
20260905045105 80 188 0.0 0.9 0.00 0.00 0.00 95 1015.3
20260905044605 80 192 0.0 0.9 0.00 0.00 0.00 95 1015.4
20260905044035 80 225 0.0 1.7 0.00 0.00 0.00 94 1015.4
20260905043653 80 216 0.9 1.7 0.00 0.00 0.00 94 1015.4
20260905043505 80 216 0.9 1.7 0.00 0.00 0.00 94 1015.4
20260905042935 80 214 0.0 1.7 0.00 0.00 0.00 95 1015.3
20260905042651 80 214 0.0 0.9 0.00 0.00 0.00 94 1015.3
20260905042405 80 214 0.0 0.9 0.00 0.00 0.00 94 1015.3
20260905042112 80 208 0.9 1.7 0.00 0.00 0.00 94 1015.3
20260905041905 80 208 0.9 1.7 0.00 0.00 0.00 94 1015.3
20260905041654 80 207 0.9 1.7 0.00 0.00 0.00 93 1015.4
20260905041405 80 207 0.9 1.7 0.00 0.00 0.00 93 1015.4
20260905040905 80 182 0.9 1.7 0.00 0.00 0.00 93 1015.2
20260905040405 80 170 0.9 1.7 0.00 0.00 0.00 93 1015.3
20260905040127 80 175 0.0 1.7 0.00 0.00 0.00 94 1015.3
20260905035835 80 175 0.0 1.7 0.00 0.00 0.00 94 1015.3
20260905035648 80 182 0.0 1.7 0.00 0.00 0.00 95 1015.3
20260905035335 80 182 0.0 1.7 0.00 0.00 0.00 95 1015.3
20260905034835 80 182 0.0 0.9 0.00 0.00 0.00 95 1015.3
20260905034335 80 0 0.0 0.0 0.00 0.00 0.00 95 1015.5
20260905034134 80 0 0.0 0.0 0.00 0.00 0.00 95 1015.5
20260905033807 80 0 0.0 0.0 0.00 0.00 0.00 95 1015.5
20260905032735 80 115 0.0 1.7 0.00 0.00 0.00 95 1015.7
20260905032235 80 115 0.0 1.7 0.00 0.00 0.00 95 1015.9
20260905031735 80 211 0.0 0.9 0.00 0.00 0.00 95 1015.9
20260905031235 80 211 0.0 0.9 0.00 0.00 0.00 95 1015.9
20260905030705 80 211 0.0 0.9 0.00 0.00 0.00 95 1015.8
20260905025605 80 0 0.0 0.0 0.00 0.00 0.00 94 1015.9
20260905025341 80 0 0.0 0.0 0.00 0.00 0.00 94 1015.9
20260905025105 80 0 0.0 0.0 0.00 0.00 0.00 94 1015.9
20260905024535 80 179 0.0 0.9 0.00 0.00 0.00 94 1015.7
20260905023738 80 113 0.9 2.6 0.00 0.00 0.00 95 1015.7
20260905023505 80 113 0.9 2.6 0.00 0.00 0.00 95 1015.7
20260905022935 80 102 1.7 5.2 0.00 0.00 0.00 95 1015.7
20260905022405 80 94 0.9 5.2 0.00 0.00 0.00 94 1015.5
20260905021904 80 83 0.0 0.9 0.00 0.00 0.00 94 1015.6
20260905020905 80 77 0.9 3.5 0.00 0.00 0.00 95 1015.6
20260905020104 80 97 0.9 2.6 0.00 0.00 0.00 94 1015.6
20260905015836 80 97 0.9 2.6 0.00 0.00 0.00 94 1015.6
20260905014305 80 261 0.0 0.9 0.00 0.00 0.00 94 1015.5
20260905013736 80 198 0.0 1.7 0.00 0.00 0.00 94 1015.3
20260905012635 80 160 0.9 1.7 0.00 0.00 0.00 93 1015.2
20260905012105 80 182 0.9 4.3 0.00 0.00 0.00 93 1015.3
20260905011742 80 184 0.9 4.3 0.00 0.00 0.00 93 1015.3
20260905011535 80 184 0.9 4.3 0.00 0.00 0.00 93 1015.3
20260905011035 80 187 1.7 4.3 0.00 0.00 0.00 92 1015.3
20260905010713 80 169 1.7 4.3 0.00 0.00 0.00 91 1015.3
20260905010505 80 169 1.7 4.3 0.00 0.00 0.00 91 1015.3
20260905010352 81 170 0.9 5.2 0.00 0.00 0.00 89 1015.3
20260905010005 81 170 0.9 5.2 0.00 0.00 0.00 89 1015.3
20260905005650 81 173 0.9 5.2 0.00 0.00 0.00 88 1015.0
20260905005505 81 173 0.9 5.2 0.00 0.00 0.00 88 1015.0
20260905004935 81 161 2.6 7.0 0.00 0.00 0.00 88 1014.9
20260905004405 82 171 3.5 9.6 0.00 0.00 0.00 88 1015.2
20260905003905 82 164 3.5 9.6 0.00 0.00 0.00 87 1015.5
20260905003405 83 115 3.5 9.6 0.00 0.00 0.00 89 1015.5
20260905003158 83 97 2.6 8.7 0.00 0.00 0.00 90 1015.7
20260905002905 83 97 2.6 8.7 0.00 0.00 0.00 90 1015.7
20260905001305 83 42 0.9 3.5 0.00 0.01 0.00 89 1015.4
20260905000735 83 24 1.7 3.5 0.00 0.01 0.00 89 1015.0
20260904234851 85 6 2.6 5.2 0.00 0.02 0.00 86 1015.2
20260904234705 85 6 2.6 5.2 0.00 0.02 0.00 86 1015.2
20260904234135 85 11 1.7 5.2 0.00 0.02 0.00 86 1015.0
20260904233635 85 40 0.9 4.3 0.00 0.03 0.00 86 1014.8
20260904233355 85 101 0.9 2.6 0.00 0.04 0.00 85 1014.9
20260904233105 85 101 0.9 2.6 0.00 0.04 0.00 85 1014.9
20260904232808 85 110 0.9 2.6 0.00 0.06 0.00 86 1014.9
20260904232605 85 110 0.9 2.6 0.00 0.06 0.00 86 1014.9
20260904232310 85 106 0.9 2.6 0.00 0.09 0.00 86 1014.9
20260904232105 85 106 0.9 2.6 0.00 0.09 0.00 86 1014.9
20260904231605 86 102 1.7 3.5 0.00 0.11 0.00 86 1014.8
20260904231035 86 100 1.7 3.5 0.00 0.14 0.00 85 1014.7
20260904230424 86 85 1.7 5.2 0.00 0.16 0.00 83 1014.5
20260904230035 86 85 1.7 5.2 0.00 0.16 0.00 83 1014.5
20260904225756 87 95 1.7 5.2 0.00 0.17 0.00 83 1014.5
20260904225505 87 95 1.7 5.2 0.00 0.17 0.00 83 1014.5
20260904225005 88 95 0.9 2.6 0.00 0.17 0.00 81 1014.5
20260904224505 88 78 0.0 2.6 0.00 0.17 0.00 81 1014.4
20260904223935 88 0 0.0 0.0 0.00 0.17 0.00 79 1014.3
20260904223434 88 198 0.0 0.9 0.00 0.17 0.00 80 1014.5
20260904223302 88 199 0.0 0.9 0.00 0.17 0.00 79 1014.6
20260904222905 88 199 0.0 0.9 0.00 0.17 0.00 79 1014.6
20260904222405 88 220 0.9 1.7 0.00 0.17 0.00 80 1014.5
20260904221335 88 249 1.7 2.6 0.00 0.17 0.00 80 1014.0
20260904220305 88 238 1.7 4.3 0.00 0.17 0.00 79 1013.3
20260904215735 88 239 1.7 6.1 0.00 0.17 0.00 79 1013.3
20260904213605 88 233 1.7 6.1 0.00 0.17 0.00 78 1013.9
20260904213035 88 235 2.6 7.0 0.00 0.17 0.00 77 1014.1
20260904212505 88 235 1.7 7.0 0.00 0.17 0.00 76 1014.2
20260904212005 88 232 1.7 7.8 0.00 0.17 0.00 76 1014.4
20260904211803 88 234 2.6 7.8 0.00 0.17 0.00 76 1014.3
20260904211505 88 234 2.6 7.8 0.00 0.17 0.00 76 1014.3
20260904211005 89 241 3.5 8.7 0.00 0.17 0.00 75 1014.2
20260904210505 89 255 4.3 9.6 0.00 0.17 0.00 75 1013.9
20260904210202 90 245 3.5 9.6 0.00 0.17 0.00 74 1014.2
20260904205935 90 245 3.5 9.6 0.00 0.17 0.00 74 1014.2
20260904205435 90 241 3.5 7.8 0.00 0.17 0.00 73 1014.2
20260904205218 90 253 3.5 8.7 0.00 0.17 0.00 76 1013.9
20260904204905 90 253 3.5 8.7 0.00 0.17 0.00 76 1013.9
20260904204405 90 259 3.5 8.7 0.00 0.18 0.00 74 1013.8
20260904203905 90 259 3.5 7.0 0.00 0.18 0.00 75 1013.8
20260904203335 91 255 2.6 7.0 0.00 0.18 0.00 76 1013.9
20260904202235 90 254 2.6 6.1 0.00 0.24 0.00 82 1013.7
20260904201735 89 261 2.6 7.0 0.00 0.24 0.00 80 1013.7
20260904200705 90 248 1.7 5.2 0.00 0.24 0.00 77 1013.7
20260904195705 91 252 1.7 3.5 0.00 0.24 0.00 76 1013.9
20260904194705 91 321 1.7 3.5 0.00 0.24 0.00 76 1013.9
20260904193035 89 255 1.7 4.3 0.00 0.24 0.00 78 1014.2
20260904192534 88 274 1.7 4.3 0.00 0.24 0.00 79 1014.2
20260904192228 86 293 1.7 4.3 0.00 0.24 0.00 79 1014.4
20260904192035 86 293 1.7 4.3 0.00 0.24 0.00 79 1014.4
20260904191534 85 302 1.7 2.6 0.00 0.24 0.00 85 1014.7
20260904191246 82 293 0.9 2.6 0.00 0.24 0.00 88 1015.1
20260904191035 82 293 0.9 2.6 0.00 0.24 0.00 88 1015.1
20260904190714 81 254 0.9 2.6 0.00 0.24 0.00 90 1014.8
20260904190535 81 254 0.9 2.6 0.00 0.24 0.00 90 1014.8
20260904190251 80 233 1.7 4.3 0.00 0.24 0.00 90 1015.0
20260904190004 80 233 1.7 4.3 0.00 0.24 0.00 90 1015.0
20260904185504 80 206 2.6 7.8 0.00 0.24 0.00 88 1015.2
20260904185124 81 189 5.2 9.6 0.00 0.24 0.00 87 1015.2
20260904184935 81 189 5.2 9.6 0.00 0.24 0.00 87 1015.2
20260904184435 82 193 6.1 9.6 0.00 0.24 0.00 84 1015.0
20260904183406 88 189 3.5 14.8 0.00 0.24 0.00 76 1015.3
20260904182835 90 178 2.6 6.1 0.00 0.24 0.00 76 1015.1
20260904181834 92 193 3.5 8.7 0.00 0.24 0.00 74 1015.2
20260904180805 92 182 2.6 10.4 0.00 0.24 0.00 73 1015.2
20260904180009 91 213 3.5 8.7 0.00 0.24 0.00 77 1015.3
20260904175734 91 213 3.5 8.7 0.00 0.24 0.00 77 1015.3
20260904175234 91 195 2.6 7.8 0.00 0.24 0.00 74 1015.4
20260904174704 90 217 1.7 6.1 0.00 0.24 0.00 76 1015.3
20260904174135 90 222 1.7 7.0 0.00 0.24 0.00 75 1015.4
20260904173605 90 213 1.7 7.0 0.00 0.24 0.00 75 1015.5
20260904173343 90 202 1.7 4.3 0.00 0.24 0.00 77 1015.5
20260904173105 90 202 1.7 4.3 0.00 0.24 0.00 77 1015.5
20260904172605 90 204 1.7 7.0 0.00 0.24 0.00 75 1015.6
20260904172408 91 219 1.7 7.0 0.00 0.24 0.00 74 1015.6
20260904172035 91 219 1.7 7.0 0.00 0.24 0.00 74 1015.6
20260904171722 91 224 1.7 4.3 0.00 0.24 0.00 76 1015.5
20260904171504 91 224 1.7 4.3 0.00 0.24 0.00 76 1015.5
20260904170713 91 225 2.6 7.0 0.00 0.24 0.00 77 1015.8
20260904170435 91 225 2.6 7.0 0.00 0.24 0.00 77 1015.8
20260904165905 91 227 2.6 7.0 0.00 0.24 0.00 77 1015.8
20260904163805 90 213 2.6 7.8 0.00 0.24 0.00 76 1016.2
20260904163235 90 223 2.6 7.8 0.00 0.24 0.00 79 1016.3
20260904162705 89 230 3.5 7.8 0.00 0.24 0.00 81 1016.3
20260904162136 89 238 3.5 7.8 0.00 0.24 0.00 79 1016.4
20260904161836 88 239 3.5 7.8 0.00 0.24 0.00 80 1016.5
20260904161635 88 239 3.5 7.8 0.00 0.24 0.00 80 1016.5
20260904160829 88 264 1.7 3.5 0.00 0.24 0.00 82 1016.6
20260904160605 88 264 1.7 3.5 0.00 0.24 0.00 82 1016.6
20260904160105 88 270 1.7 2.6 0.00 0.24 0.00 82 1016.6
20260904155035 89 210 1.7 5.2 0.00 0.24 0.00 81 1016.6
20260904154310 88 231 1.7 5.2 0.00 0.24 0.00 82 1016.7
20260904154005 88 231 1.7 5.2 0.00 0.24 0.00 82 1016.7
20260904152934 88 193 2.6 7.0 0.00 0.24 0.00 82 1016.6
20260904152656 88 189 1.7 7.0 0.00 0.24 0.00 82 1016.6
20260904152434 88 189 1.7 7.0 0.00 0.24 0.00 82 1016.6
20260904151904 88 213 1.7 6.1 0.00 0.24 0.00 83 1016.5
20260904151656 88 218 2.6 5.2 0.00 0.24 0.00 84 1016.5
20260904151405 88 218 2.6 5.2 0.00 0.24 0.00 84 1016.5
20260904150405 88 194 2.6 7.0 0.00 0.24 0.00 84 1016.4
20260904145835 87 192 1.7 5.2 0.00 0.24 0.00 84 1016.3
20260904145306 87 194 1.7 5.2 0.00 0.24 0.00 85 1016.3
20260904144234 86 190 2.6 6.1 0.00 0.24 0.00 87 1016.3
20260904143734 86 201 1.7 6.1 0.00 0.24 0.00 87 1016.3
20260904143205 85 206 1.7 6.1 0.00 0.24 0.00 87 1016.3
20260904142934 85 188 1.7 4.3 0.00 0.24 0.00 89 1016.2
20260904142635 85 188 1.7 4.3 0.00 0.24 0.00 89 1016.2
20260904141605 84 188 1.7 6.1 0.00 0.24 0.00 89 1016.2
20260904141104 84 183 2.6 7.0 0.00 0.24 0.00 90 1016.2
20260904140856 83 198 2.6 7.0 0.00 0.24 0.00 90 1016.1
20260904140534 83 198 2.6 7.0 0.00 0.24 0.00 90 1016.1
20260904140035 83 210 2.6 7.0 0.00 0.24 0.00 91 1016.0
20260904135004 83 191 2.6 7.8 0.00 0.24 0.00 91 1016.1
20260904134716 82 180 2.6 7.0 0.00 0.24 0.00 93 1016.1
20260904134504 82 180 2.6 7.0 0.00 0.24 0.00 93 1016.1
20260904134320 82 207 1.7 6.1 0.00 0.24 0.00 92 1016.0
20260904134005 82 207 1.7 6.1 0.00 0.24 0.00 92 1016.0
20260904133804 82 222 1.7 6.1 0.00 0.24 0.00 95 1016.1
20260904133435 82 222 1.7 6.1 0.00 0.24 0.00 95 1016.1
20260904132709 81 207 0.9 3.5 0.00 0.24 0.00 95 1015.9
20260904132404 81 207 0.9 3.5 0.00 0.24 0.00 95 1015.9
20260904124734 79 187 1.7 4.3 0.00 0.24 0.00 98 1015.6
20260904124401 79 185 1.7 5.2 0.00 0.24 0.00 98 1015.5
20260904124205 79 185 1.7 5.2 0.00 0.24 0.00 98 1015.5
20260904123833 79 206 1.7 5.2 0.00 0.24 0.00 98 1015.5
20260904123704 79 206 1.7 5.2 0.00 0.24 0.00 98 1015.5
20260904123327 78 220 0.9 2.6 0.00 0.24 0.00 99 1015.6
20260904123134 78 220 0.9 2.6 0.00 0.24 0.00 99 1015.6
20260904122358 78 167 0.9 2.6 0.00 0.24 0.00 99 1015.6
20260904122135 78 167 0.9 2.6 0.00 0.24 0.00 99 1015.6
20260904121742 78 156 0.9 3.5 0.00 0.24 0.00 99 1015.6
20260904121635 78 156 0.9 3.5 0.00 0.24 0.00 99 1015.6
20260904120840 78 155 0.9 3.5 0.00 0.24 0.00 99 1015.4
20260904120636 78 155 0.9 3.5 0.00 0.24 0.00 99 1015.4
20260904120349 78 148 0.0 2.6 0.00 0.24 0.00 99 1015.4
20260904120136 78 148 0.0 2.6 0.00 0.24 0.00 99 1015.4
20260904114751 77 187 0.9 1.7 0.00 0.24 0.00 99 1015.3
20260904114636 77 187 0.9 1.7 0.00 0.24 0.00 99 1015.3
20260904114255 77 207 0.0 1.7 0.00 0.24 0.00 99 1015.3
20260904114105 77 207 0.0 1.7 0.00 0.24 0.00 99 1015.3
20260904113605 77 206 0.0 2.6 0.00 0.24 0.00 100 1015.3
20260904113034 77 200 0.0 2.6 0.00 0.24 0.00 99 1015.2
20260904112408 77 176 0.9 4.3 0.00 0.24 0.00 99 1015.2
20260904112035 77 176 0.9 4.3 0.00 0.24 0.00 99 1015.2
20260904111644 77 179 0.9 2.6 0.00 0.24 0.00 99 1015.1
20260904111535 77 179 0.9 2.6 0.00 0.24 0.00 99 1015.1
20260904111005 77 179 1.7 3.5 0.00 0.24 0.00 99 1015.0
20260904110434 77 176 1.7 3.5 0.00 0.24 0.00 99 1015.1
20260904110116 77 175 0.9 3.5 0.00 0.24 0.00 100 1014.9
20260904105934 77 175 0.9 3.5 0.00 0.24 0.00 100 1014.9
20260904105634 77 176 0.9 3.5 0.00 0.24 0.00 100 1014.9
20260904105435 77 176 0.9 3.5 0.00 0.24 0.00 100 1014.9
20260904104904 77 175 0.9 4.3 0.00 0.24 0.00 100 1014.9
20260904103306 77 184 0.0 3.5 0.00 0.24 0.00 100 1014.9
20260904102735 77 180 0.0 1.7 0.00 0.24 0.00 100 1014.9
20260904101830 77 161 0.9 3.5 0.00 0.24 0.00 100 1014.7
20260904101636 77 161 0.9 3.5 0.00 0.24 0.00 100 1014.7
20260904100645 77 177 0.0 1.7 0.00 0.24 0.00 100 1014.6
20260904100534 77 177 0.0 1.7 0.00 0.24 0.00 100 1014.6
20260904100220 79 83 2.6 7.0 0.00 0.00 0.00 100 1013.6
20260904100218 79 90 2.6 5.2 0.00 0.00 0.00 99 1013.8
20260904094504 76 178 0.0 1.7 0.00 0.24 0.00 100 1014.3
20260904093436 76 217 0.0 0.9 0.00 0.24 0.00 100 1014.4
20260904092904 76 220 0.9 1.7 0.00 0.24 0.00 100 1014.3
20260904092122 76 177 0.0 1.7 0.00 0.24 0.00 100 1014.3
20260904091905 76 177 0.0 1.7 0.00 0.24 0.00 100 1014.3
20260904091624 76 161 0.0 0.9 0.00 0.24 0.00 100 1014.3
20260904091405 76 161 0.0 0.9 0.00 0.24 0.00 100 1014.3
20260904091033 76 161 0.0 1.7 0.00 0.24 0.00 100 1014.3
20260904090835 76 161 0.0 1.7 0.00 0.24 0.00 100 1014.3
20260904090306 76 169 0.0 1.7 0.00 0.24 0.00 100 1014.3
20260904084704 76 176 0.0 0.9 0.00 0.24 0.00 100 1014.2
20260904083021 76 127 0.0 1.7 0.00 0.24 0.00 100 1014.2
20260904082636 76 127 0.0 1.7 0.00 0.24 0.00 100 1014.2
20260904082104 76 116 0.9 2.6 0.00 0.24 0.00 100 1014.3
20260904081604 76 112 0.9 2.6 0.00 0.24 0.00 100 1014.3
20260904081414 76 100 0.9 3.5 0.00 0.24 0.00 100 1014.2
20260904081105 76 100 0.9 3.5 0.00 0.24 0.00 100 1014.2